Location: Unspecified
(0.0000°N, 0.0000°E)
Time: 23:38:39
(UTC+02:00)

Iridium 12 - Visible Passes

Search period start: 24 July 2014 00:00
Search period end: 03 August 2014 00:00
Orbit: 776 x 779 km, 86.4° (Epoch: 24 July)

Date Brightness Start Highest point End Pass type
(mag) Time Alt. Az. Time Alt. Az. Time Alt. Az.
24 Jul 8.3 23:02:34 10° NNW 23:02:53 12° NNW 23:02:53 12° NNW visible
25 Jul 7.7 22:28:46 10° N 22:29:54 17° N 22:29:54 17° N visible
26 Jul 7.4 21:55:41 10° NNE 21:56:58 17° NNE 21:56:58 17° NNE visible
27 Jul 7.6 21:23:38 10° NE 21:24:04 12° NE 21:24:04 12° NE visible
27 Jul 8.1 23:03:17 10° NW 23:04:35 16° NW 23:04:35 16° NW visible
28 Jul 7.0 22:28:57 10° NNW 22:31:44 31° NNW 22:31:44 31° NNW visible
29 Jul 6.2 21:55:26 10° N 21:58:56 42° NNE 21:58:56 42° NNE visible
30 Jul 6.5 21:22:41 10° NNE 21:26:12 27° ENE 21:26:12 27° ENE visible
30 Jul 8.2 23:04:33 10° NW 23:06:44 15° W 23:06:44 15° W visible
31 Jul 7.2 20:51:26 10° ENE 20:53:33 13° E 20:53:33 13° E visible
31 Jul 6.9 22:29:26 10° NNW 22:34:04 34° W 22:34:04 34° W visible
01 Aug 5.5 21:55:27 10° N 22:00:38 78° W 22:01:30 61° SSW visible
02 Aug 5.7 21:22:13 10° NNE 21:27:11 47° E 21:29:01 33° SE visible
